Weather Roundup
Issued by NWS

Home | Current Version | Previous Version | Text Only | Print | Product List | Glossary On
Versions: 1 2 3 4 5 6 7 8 9 10 11 12 13 14 15 16 17 18 19 20 21 22 23 24 25 26 27 28 29 30 31 32 33 34 35 36 37 38 39 40 41 42 43 44 45 46 47 48 49 50
000
NZUS93 KARX 200810
HRRWXR

CURRENT HOURLY OBSERVATIONS ACROSS
MUCH OF THE UPPER MISSISSIPPI VALLEY
NATIONAL WEATHER SERVICE LA CROSSE WI
300 AM CDT WED AUG 20 2014


...SOUTHEAST MINNESOTA...


CITY           SKY/WX    TMP DP  RH WIND       PRES   REMARKS
ROCHESTER      PTCLDY    64  62  93 W5        29.84R
ROCHESTER/MAYO FAIR      66  63  90 W3        29.83R
WINONA         PTCLDY    63  63 100 CALM      29.81R
AUSTIN         FOG       64  63  94 CALM      29.83R VSB 3/4
ALBERT LEA     FOG       64  64 100 CALM      29.82F VSB 1/4
DODGE CENTER   CLEAR     63  61  94 SW5       29.83R FOG
PRESTON        CLEAR     64  64 100 SW6       29.84R
OWATONNA         N/A     61  59  94 CALM      29.82S FOG
FARIBAULT      HAZE      63  57  82 CALM      29.82S VSB 1/2
$$

...ELSEWHERE IN MINNESOTA...


CITY           SKY/WX    TMP DP  RH WIND       PRES   REMARKS
MINNEAPOLIS    PTCLDY    68  65  90 CALM      29.81R
INTNL FALLS    CLEAR     49  48  97 CALM      29.83S
DULUTH         FOG       60  58  92 E7        29.83S VSB 1/4
RED WING       CLEAR     63  61  94 CALM      29.80R
REDWOOD FALLS  PTCLDY    65  63  93 CALM      29.79F
MANKATO        CLEAR     64  61  88 SW3       29.81S
WORTHINGTON    CLEAR     61   7  11 CALM      29.83S
FAIRMONT       CLEAR     64  48  55 CALM      29.81F
$$

...SOUTHWEST WISCONSIN...


CITY           SKY/WX    TMP DP  RH WIND       PRES   REMARKS
LA CROSSE      PTCLDY    67  63  87 S5        29.80R
PRAIRIE DU CHI CLEAR     64  62  91 CALM      29.81S
BOSCOBEL       MOCLDY    65  63  93 CALM      29.81R
LONE ROCK      MOCLDY    64  60  87 CALM      29.81S
PLATTEVILLE    CLEAR     65  63  93 CALM      29.84R
FORT MC COY    PTCLDY    58  57  96 CALM      29.82R
CAMP DOUGLAS   FOG       57  57 100 W2        29.80S VSB 3/4
VIROQUA        FAIR      63  63 100 CALM      29.83R
WIS DELLS      CLEAR     61  59  93 CALM      29.81R
$$

...ELSEWHERE IN WISCONSIN...


CITY           SKY/WX    TMP DP  RH WIND       PRES   REMARKS
MILWAUKEE      CLEAR     68  62  81 W6        29.78R
MADISON        CLEAR     64  61  90 CALM      29.81R
GREEN BAY      CLEAR     61  60  97 CALM      29.78R
EAU CLAIRE     FOG       62  62 100 CALM      29.81R VSB 1
BLACK RVR FLS  FOG       58  58 100 CALM      29.80R VSB<1/4
MEDFORD        CLOUDY    58  58  99 N5        29.81S
WAUSAU         PTCLDY    61  59  93 W6        29.79R
WIS RAPIDS     PTCLDY    60  59  96 CALM      29.81R
MARSHFIELD     FOG       60  59  96 W3        29.81R VSB 1/4
RICE LAKE      CLOUDY    61  59  96 CALM      29.83S
$$

...NORTHEAST IOWA...


CITY           SKY/WX    TMP DP  RH WIND       PRES   REMARKS
WATERLOO       CLEAR     65  62  90 CALM      29.82R
DUBUQUE        PTCLDY    63  61  93 SW6       29.84R
DECORAH        PTCLDY    66  63  88 CALM      29.82R
MASON CITY     CLEAR     66  63  90 W6        29.84S
CHARLES CITY   CLEAR     64  63  94 CALM      29.83S
OELWEIN        CLEAR     64  63  94 SW7       29.84S
$$

...ELSEWHERE IN IOWA...


CITY           SKY/WX    TMP DP  RH WIND       PRES   REMARKS
DES MOINES     PTCLDY    72  66  81 SE6       29.82F
IOWA CITY      CLEAR     62  62 100 W3        29.84S
FORT DODGE     CLEAR     61  61 100 CALM      29.82F
MARSHALLTOWN   CLEAR     63  62  97 CALM      29.83S
CEDAR RAPIDS   CLEAR     63  62  97 W5        29.83S
$$

...NORTHERN ILLINOIS...


CITY           SKY/WX    TMP DP  RH WIND       PRES   REMARKS
CHICAGO-OHARE  CLEAR     69  61  75 W6        29.79R
DUPAGE         CLEAR     66  62  87 SW6       29.80S
CHICAGO-MIDWAY CLEAR     71  66  84 W5        29.79S
MOLINE         CLEAR     63  60  90 CALM      29.83S
ROCKFORD       PTCLDY    64  61  90 CALM      29.83S
STERLING       CLEAR     64  61  88 W3        29.84R
PEORIA         CLEAR     69  65  86 CALM      29.84S
$$

NOTE: "FAIR" INDICATES FEW OR NO CLOUDS BELOW 12,000 FEET WITH NO
SIGNIFICANT WEATHER AND/OR OBSTRUCTIONS TO VISIBILITY. WIND
SPEEDS ARE IN MILES-PER-HOUR.



USA.gov is the U.S. government's official web portal to all federal, state and local government web resources and services.